Weather History for Saginaw, MI

Change the Weather History Date:

Thursday, January 2, 2014

  Actual Average Record
Temperature  
Mean Temperature 7 °F 23 °F  
Max Temperature 14 °F 30 °F 54 °F (2004)
Min Temperature 0 °F 17 °F 0 °F (2001)
Degree Days  
Heating Degree Days 58    
Month to date heating degree days 113  
Since 1 July heating degree days 2817  
Cooling Degree Days 0    
Month to date cooling degree days 0  
Year to date cooling degree days 0  
Moisture  
Dew Point 2 °F    
Average Humidity 71    
Maximum Humidity 83    
Minimum Humidity 58    
Precipitation  
Precipitation 0.01 in 0.07 in 0.56 in (2005)
Month to date precipitation 0.01 0.13  
Year to date precipitation 0.01 0.13  
Snow  
Snow 0.40 in - - ()
Month to date snowfall 0.4  
Since 1 July snowfall 20.9  
Snow Depth 8.00 in    
Sea Level Pressure  
Sea Level Pressure 30.27 in    
Wind  
Wind Speed 15 mph (NNE)    
Max Wind Speed 25 mph    
Max Gust Speed 28 mph    
Visibility 6 miles    
Events Snow    
T = Trace of Precipitation, MM = Missing Value Source: NWS Daily Summary

Daily Weather History Graph

Daily Weather History Graph

Search for Another Location

Airport:

Trip Planner

Search our weather history database for the weather conditions in past years. The results will help you decide how hot, cold, wet, or windy it might be!

Date:

Astronomy

Jan. 02, 2014 Rise Set
Actual Time 8:09 AM EST 5:11 PM EST
Civil Twilight 7:36 AM EST 5:44 PM EST
Nautical Twilight 7:00 AM EST 6:20 PM EST
Astronomical Twilight 6:26 AM EST 6:54 PM EST
Moon 8:46 AM EST (1/2) 7:11 PM EST (1/2)
Length of Visible Light 10h 07m
Length of Day
9h 02m
New Moon, 2% of the Moon is Illuminated
Jan 2
New Moon
Jan 7
First Quarter
Jan 15
Full
Jan 24
Last Quarter
Jan 30
New

Hourly Weather History & Observations

Time (EST) Temp. Windchill Dew Point Humidity Pressure Visibility Wind Dir Wind Speed Gust Speed Precip Events Conditions
12:53 AM 10.9 °F -4.7 °F 6.1 °F 81% 30.33 in 10.0 mi NNE 13.8 mph - 0.00 in   Overcast
1:53 AM 10.9 °F -4.7 °F 6.1 °F 81% 30.31 in 10.0 mi NNE 13.8 mph - N/A   Overcast
2:08 AM 10.4 °F -5.4 °F 6.8 °F 85% 30.26 in 8.0 mi NNE 13.8 mph - 0.00 in Snow Light Snow
2:23 AM 10.4 °F -6.0 °F 6.8 °F 85% 30.26 in 8.0 mi NNE 15.0 mph - 0.00 in Snow Light Snow
2:53 AM 10.9 °F -5.9 °F 6.1 °F 81% 30.30 in 6.0 mi NNE 16.1 mph - 0.00 in Snow Light Snow
3:53 AM 10.9 °F -4.7 °F 6.1 °F 81% 30.29 in 5.0 mi NNE 13.8 mph - 0.00 in Snow Light Snow
4:29 AM 10.4 °F -6.6 °F 6.8 °F 85% 30.22 in 5.0 mi NNE 16.1 mph - 0.00 in Snow Light Snow
4:53 AM 10.9 °F -4.7 °F 6.1 °F 81% 30.27 in 4.0 mi NNE 13.8 mph - 0.00 in Snow Light Snow
5:53 AM 10.9 °F -4.7 °F 7.0 °F 84% 30.27 in 4.0 mi NNE 13.8 mph - 0.00 in Snow Light Snow
6:53 AM 10.9 °F -4.7 °F 7.0 °F 84% 30.26 in 4.0 mi NNE 13.8 mph - 0.00 in Snow Light Snow
7:53 AM 10.9 °F -5.9 °F 7.0 °F 84% 30.25 in 2.0 mi NNE 16.1 mph - 0.00 in Snow Light Snow
8:01 AM 10.4 °F -5.4 °F 6.8 °F 85% 30.21 in 1.0 mi NNE 13.8 mph - 0.00 in Snow Light Snow
8:08 AM 10.4 °F -7.2 °F 6.8 °F 85% 30.20 in 1.0 mi NNE 17.3 mph - 0.00 in Snow Light Snow
8:29 AM 10.4 °F -6.6 °F 6.8 °F 85% 30.21 in 1.0 mi NNE 16.1 mph - 0.00 in Snow Light Snow
8:53 AM 10.0 °F -7.6 °F 6.1 °F 84% 30.25 in 1.0 mi NNE 17.3 mph 56.4 mph 0.00 in Snow Light Snow
9:53 AM 10.0 °F -8.1 °F 5.0 °F 80% 30.26 in 1.0 mi NNE 18.4 mph - 0.00 in Snow Light Snow
10:51 AM 10.4 °F -8.2 °F 5.0 °F 79% 30.22 in 2.0 mi NNE 19.6 mph - 0.00 in   Haze
10:52 AM 10.9 °F -7.5 °F 5.0 °F 77% 30.27 in 2.0 mi NNE 19.6 mph - 0.00 in   Haze
11:53 AM 10.9 °F -6.5 °F 3.9 °F 73% 30.26 in 2.0 mi North 17.3 mph - N/A   Haze
12:53 PM 10.9 °F -5.9 °F 1.9 °F 67% 30.24 in 2.0 mi North 16.1 mph - 0.00 in   Overcast
1:00 PM 10.4 °F -8.2 °F 1.4 °F 67% 30.19 in 9.0 mi North 19.6 mph 25.3 mph N/A   Overcast
1:53 PM 10.9 °F -7.0 °F 1.0 °F 64% 30.23 in 9.0 mi North 18.4 mph - N/A   Overcast
2:53 PM 10.0 °F -7.6 °F -0.0 °F 64% 30.23 in 10.0 mi North 17.3 mph 25.3 mph N/A   Overcast
3:53 PM 10.0 °F -7.1 °F -0.9 °F 61% 30.25 in 9.0 mi North 16.1 mph - N/A   Overcast
4:53 PM 10.0 °F -6.5 °F -2.0 °F 58% 30.26 in 10.0 mi North 15.0 mph 24.2 mph N/A   Overcast
5:53 PM 9.0 °F -6.6 °F -2.0 °F 61% 30.29 in 10.0 mi North 12.7 mph - N/A   Overcast
6:53 PM 5.0 °F -11.6 °F -4.0 °F 66% 30.31 in 10.0 mi North 12.7 mph - N/A   Clear
7:53 PM 3.9 °F -13.7 °F -6.0 °F 64% 30.34 in 10.0 mi North 13.8 mph - N/A   Clear
8:53 PM 3.9 °F -12.2 °F -6.0 °F 64% 30.35 in 10.0 mi North 11.5 mph - N/A   Clear
9:53 PM 1.9 °F -12.9 °F -7.1 °F 66% 30.35 in 10.0 mi NNW 9.2 mph - N/A   Clear
10:53 PM 1.0 °F -15.8 °F -7.1 °F 69% 30.35 in 10.0 mi NNW 11.5 mph - N/A   Clear
11:53 PM 1.0 °F -15.8 °F -7.1 °F 69% 30.36 in 10.0 mi NW 11.5 mph - N/A   Clear